weather.gov     
National Weather Service

Other Surface Observations
NWS Homepage
This page is being discontinued on March 12, 2014.
The same data is available at this site. Please update your bookmarks.
Thank you, and we apologize for the inconvenience.
Please send an email to SR-SRH.Webmaster@noaa.gov with any concerns.


Current Version
Previous Version:    01  02  03  04  05  06  07  08  09  10  11  12  13  14  15  16  17  18  19  20  21  22  23  24  25  26  27  28  29  30  
   31  32  33  34  35  36  37  38  39  40  41  42  43  44  45  46  47  48  49  50  51  52  53  54  55  56  57  58  59  60  
[Printable]
531
SXUS55 KTWC 220415
OSOTWC

WEATHER ROUNDUP FOR SOUTHEAST ARIZONA
NATIONAL WEATHER SERVICE TUCSON AZ
915 PM MST SUN DEC 21 2014

AZZ504>506-514-220515-
LOCATION       SKY/WX    TMP DP  RH WIND       PRES   REMARKS
TUCSON         MOCLDY    51  38  60 S5        30.08F
DAVIS-MONTHAN  PTCLDY    49  39  70 S5        30.06S
CHILDRENS PARK N/A       50  39  65 W1                PIMA CO DEQ
ALVERNON/22ND  N/A      N/A N/A N/A N/A               PIMA CO DEQ
CHERRY/GLENN   N/A      N/A N/A N/A N/A               PIMA CO DEQ
TANGERINE      N/A       50 N/A N/A NE5               PIMA CO DEQ
CONTL RANCH    N/A       53  42  66 SE1               PIMA CO DEQ
GRANT/1ST      N/A       53  39  59 W2                PIMA CO DEQ
CRAYCROFT/22ND N/A      N/A N/A N/A N/A               PIMA CO DEQ
GOLFLINKS/KOLB N/A       55  36  49 W2                PIMA CO DEQ
AJO/12TH       N/A       54  38  54 S3                PIMA CO DEQ
SAGUARO EAST   N/A      N/A N/A N/A N/A               PIMA CO DEQ
FAIRGROUNDS    N/A       49 N/A N/A NW3               PIMA CO DEQ
SAGUARO        N/A       48  38  67 CALM              *SABINO CYN
SAN CARLOS     N/A       50  36  59 CALM              *SAN CARLOS
GREEN VALLEY   N/A       51  37  59 N2                PIMA CO DEQ
HORSE CAMP CYN N/A       46  35  65 NW5               *ARAVAIPA CYN
RINCON MTNS    N/A       44  28  52 NW7G13            *NR MANNING CAMP
$$

AZZ509>511-220515-
LOCATION       SKY/WX    TMP DP  RH WIND       PRES   REMARKS
SAFFORD        CLOUDY    51  35  54 NW10      30.01S
STRAY HORSE    N/A       41  27  57 W5                *
TRAIL CABIN    N/A       42  29  60 W5G10             *N OF GRANVILLE
BLACK HILLS    N/A       53  35  50 N8G15             *N OF FT THOMAS
DRY LAKE       N/A       38  28  67 N7G12             *NATANES MTNS
NOON CREEK     N/A       45  33  62 SW6               *PINALENO MTNS
COLUMBINE      N/A       37  25  61 NW3               *PINALENO MTNS
GUTHRIE        N/A       42  28  57 W26G32            *SW OF GUTHRIE
$$

AZZ502-503-513-220515-
LOCATION       SKY/WX    TMP DP  RH WIND       PRES   REMARKS
NOGALES        CLOUDY    46  34  62 SE3       30.08R
SELLS          N/A       53  41  63 E6                *
SASABE         N/A       46  37  72 E3                *ALTAR VLY
HOPKINS        N/A       45  29  54 NW10G23           *SANTA RITA MTNS
CARR CYN       N/A       40  33  77 SW2               *W OF HEREFORD
$$

AZZ507-508-512-220515-
LOCATION       SKY/WX    TMP DP  RH WIND       PRES   REMARKS
SIERRA VISTA   CLOUDY    48  34  58 W9        30.09R
DOUGLAS        MOCLDY    45  32  60 N6        30.07S
EMPIRE MTNS    N/A       39  33  79 CALM              *LAS CIENEGAS NCA
MULESHOE RANCH N/A       46  34  63 NW6G10            *PRESERVE
HEADQUARTERS   N/A       37  32  83 E3                *CHIRICAHUA MTNS
$$

.............................NOTES.............................
THIS IS AN AUTOMATED COLLECTIVE WITH MINIMAL QUALITY CONTROL.
PIMA CO DEQ SITES HAVE NONSTANDARD WIND SENSOR HEIGHTS.
PIMA CO DEQ SITES DO NOT REPORT WIND GUSTS.
* INDICATES WIND SENSORS LOCATED AT 20 FEET INSTEAD OF 33 FEET.
..............................KEY..............................
SKY/WX - SKY CONDITION/WEATHER
TMP    - TEMPERATURE IN FAHRENHEIT
DP     - DEWPOINT IN FAHRENHEIT
RH     - RELATIVE HUMIDITY IN PERCENT
WIND   - DIRECTION AND SPEED IN MILES PER HOUR (MPH)
VRB    - VARIABLE WIND DIRECTION
PRES   - MEAN SEA LEVEL PRESSURE IN INCHES OF MERCURY
         F - FALLING PRESSURE   R - RISING PRESSURE
         S - STEADY PRESSURE
VSB    - VISIBILITY IN MILES
HX     - HEAT INDEX IN FAHRENHEIT
WCI    - WIND CHILL INDEX IN FAHRENHEIT
N/A    - NOT AVAILABLE
AFB    - AIR FORCE BASE
         DAVIS-MONTHAN IS DAVIS-MONTHAN AIR FORCE BASE
CYN    - CANYON
MTNS   - MOUNTAINS
NCA    - NATIONAL CONSERVATION AREA
NR     - NEAR
VLY    - VALLEY
CONTL  - CONTINENTAL
PIMA CO DEQ - PIMA COUNTY DEPT OF ENVIRONMENTAL QUALITY




U.S. Dept. of Commerce
NOAA National Weather Service
1325 East West Highway
Silver Spring, MD 20910
E-mail: w-nws.webmaster@noaa.gov
Page last modified: May 16, 2007
NATIONAL WEATHER SERVICE: for Safety, for Work, for Fun - FOR LIFE